EW8897 Weather Reports


time (UTC)temp
C
wind
direction
speed
KPH
gust
KPH
rain 1hr
cm
rain 24hr
cm
rain mn
cm
humidity
%
barometer
mb
20260510022514 10 0 0.0 0.0 0.00 0.18 0.18 87 1010.6
20260510022014 10 0 0.0 0.0 0.00 0.18 0.18 87 1010.6
20260510021530 10 0 0.0 0.0 0.00 0.18 0.18 87 1010.6
20260510021011 10 0 0.0 0.0 0.00 0.18 0.18 87 1010.5
20260510020511 10 0 0.0 0.0 0.00 0.18 0.18 87 1010.4
20260510020030 10 0 0.0 0.0 0.00 0.18 0.18 86 1010.6
20260510015512 10 0 0.0 0.0 0.00 0.18 0.18 86 1010.4
20260510015012 10 0 0.0 0.0 0.00 0.18 0.18 86 1010.5
20260510014533 10 0 0.0 0.0 0.00 0.18 0.18 86 1010.3
20260510014012 10 0 0.0 0.0 0.00 0.18 0.18 85 1010.5
20260510013511 10 0 0.0 0.0 0.00 0.18 0.18 85 1010.4
20260510013029 11 0 0.0 0.0 0.00 0.18 0.18 85 1010.1
20260510012512 11 0 0.0 0.0 0.00 0.18 0.18 85 1010.2
20260510012013 11 0 0.0 0.0 0.00 0.18 0.18 84 1010.0
20260510011538 11 0 0.0 0.0 0.00 0.18 0.18 84 1009.9
20260510011012 11 0 0.0 0.0 0.00 0.18 0.18 83 1009.9
20260510010512 11 0 0.0 0.0 0.00 0.18 0.18 83 1009.7
20260510010027 11 0 0.0 0.0 0.00 0.18 0.18 81 1009.9
20260510005511 12 0 0.0 0.0 0.00 0.18 0.18 81 1009.9
20260510005012 12 0 0.0 0.0 0.00 0.18 0.18 81 1009.8
20260510004527 12 0 0.0 0.0 0.00 0.18 0.18 81 1009.7
20260510004011 12 0 0.0 0.0 0.00 0.18 0.18 80 1009.6
20260510003511 13 0 0.0 0.0 0.00 0.18 0.18 78 1009.6
20260510003055 13 0 0.0 0.0 0.00 0.18 0.18 78 1009.5
20260510002513 13 0 0.0 0.0 0.00 0.18 0.18 77 1009.5
20260510002012 13 0 0.0 0.0 0.00 0.18 0.18 76 1009.4
20260510001531 14 0 0.0 0.0 0.00 0.18 0.18 75 1009.5
20260510001013 14 0 0.0 0.0 0.00 0.18 0.18 75 1009.3
20260510000513 15 0 0.0 0.0 0.00 0.18 0.18 74 1009.3
20260510000030 15 0 0.0 0.0 0.00 0.18 0.18 74 1009.2
20260509235512 15 0 0.0 0.0 0.00 0.18 0.18 73 1009.1
20260509235011 15 0 0.0 0.0 0.00 0.18 0.18 72 1009.1
20260509234530 16 0 0.0 0.0 0.00 0.18 0.18 71 1009.2
20260509234010 16 0 0.0 0.0 0.00 0.18 0.18 72 1009.2
20260509233511 16 0 0.0 0.0 0.00 0.18 0.18 71 1009.3
20260509233030 16 0 0.0 0.0 0.00 0.18 0.18 70 1009.2
20260509232512 16 0 0.0 0.0 0.00 0.18 0.18 69 1009.0
20260509232010 16 0 0.0 0.0 0.00 0.18 0.18 69 1009.1
20260509231532 17 0 0.0 0.0 0.00 0.18 0.18 69 1009.0
20260509231015 17 0 0.0 0.0 0.00 0.18 0.18 69 1009.1
20260509230510 17 0 0.0 0.0 0.00 0.18 0.18 69 1009.1
20260509230033 17 0 0.0 0.0 0.00 0.18 0.18 69 1009.1
20260509225540 17 0 0.0 0.0 0.00 0.18 0.18 69 1009.1
20260509225009 16 0 0.0 0.0 0.00 0.18 0.18 69 1009.2
20260509224532 16 0 0.0 0.0 0.00 0.18 0.18 69 1009.2
20260509224010 16 0 0.0 0.0 0.00 0.18 0.18 70 1009.3
20260509223511 16 0 0.0 0.0 0.00 0.18 0.18 70 1009.3
20260509223031 16 0 0.0 0.0 0.00 0.18 0.18 69 1009.2
20260509222513 16 0 0.0 0.0 0.00 0.18 0.18 69 1009.2
20260509222012 16 0 0.0 0.0 0.00 0.18 0.18 70 1009.2
20260509221531 16 0 0.0 0.0 0.00 0.18 0.18 69 1009.2
20260509221011 16 0 0.0 0.0 0.00 0.18 0.18 69 1009.1
20260509220511 16 0 0.0 0.0 0.00 0.18 0.18 68 1009.4
20260509220030 17 0 0.0 0.0 0.00 0.18 0.18 69 1009.3
20260509215513 16 0 0.0 0.0 0.00 0.18 0.18 69 1009.4
20260509215013 16 0 0.0 0.0 0.00 0.18 0.18 70 1009.5
20260509214531 16 0 0.0 0.0 0.00 0.18 0.18 73 1009.4
20260509214010 16 0 0.0 0.0 0.00 0.18 0.18 69 1009.4
20260509213513 16 0 0.0 0.0 0.00 0.18 0.18 70 1009.5
20260509213030 16 0 0.0 0.0 0.00 0.18 0.18 70 1009.5
20260509212511 16 0 0.0 0.0 0.00 0.18 0.18 72 1009.6
20260509212013 16 0 0.0 0.0 0.00 0.18 0.18 72 1009.7
20260509211530 16 0 0.0 0.0 0.00 0.18 0.18 71 1009.9
20260509211011 16 0 0.0 0.0 0.00 0.18 0.18 71 1010.0
20260509210511 16 0 0.0 0.0 0.00 0.18 0.18 71 1010.0
20260509210028 16 0 0.0 0.0 0.00 0.18 0.18 71 1010.0
20260509205510 16 0 0.0 0.0 0.00 0.18 0.18 73 1010.1
20260509205010 16 0 0.0 0.0 0.00 0.18 0.18 71 1010.0
20260509204529 16 0 0.0 0.0 0.00 0.18 0.18 69 1009.9
20260509204016 16 0 0.0 0.0 0.00 0.18 0.18 68 1009.8
20260509203511 16 0 0.0 0.0 0.00 0.18 0.18 68 1009.6
20260509203035 16 0 0.0 0.0 0.00 0.18 0.18 66 1009.6
20260509202510 17 0 0.0 0.0 0.00 0.18 0.18 67 1009.6
20260509202016 17 0 0.0 0.0 0.00 0.18 0.18 68 1009.6
20260509201528 17 0 0.0 0.0 0.00 0.18 0.18 67 1009.7
20260509201014 17 0 0.0 0.0 0.00 0.18 0.18 66 1009.8
20260509200511 17 0 0.0 0.0 0.00 0.18 0.18 65 1009.7
20260509200029 17 0 0.0 0.0 0.00 0.18 0.18 62 1009.8
20260509195513 17 0 0.0 0.0 0.00 0.18 0.18 64 1009.7
20260509195010 17 0 0.0 0.0 0.00 0.18 0.18 63 1009.9
20260509194534 17 0 0.0 0.0 0.00 0.18 0.18 60 1010.0
20260509194015 18 0 0.0 0.0 0.00 0.18 0.18 61 1010.1
20260509193511 17 0 0.0 0.0 0.00 0.18 0.18 62 1010.0
20260509193030 17 0 0.0 0.0 0.00 0.18 0.18 68 1010.0
20260509192511 17 0 0.0 0.0 0.00 0.18 0.18 67 1010.1
20260509192010 17 0 0.0 0.0 0.00 0.18 0.18 68 1010.3
20260509191530 16 0 0.0 0.0 0.00 0.18 0.18 67 1010.1
20260509191014 17 0 0.0 0.0 0.00 0.18 0.18 68 1010.2
20260509190510 16 0 0.0 0.0 0.00 0.18 0.18 69 1010.3
20260509190027 16 0 0.0 0.0 0.00 0.18 0.18 70 1010.3
20260509185511 16 0 0.0 0.0 0.00 0.18 0.18 70 1010.3
20260509185011 16 0 0.0 0.0 0.00 0.18 0.18 70 1010.3
20260509184534 16 0 0.0 0.0 0.00 0.18 0.18 73 1010.5
20260509184015 16 0 0.0 0.0 0.00 0.18 0.18 72 1010.6
20260509183511 16 0 0.0 0.0 0.00 0.18 0.18 76 1010.5
20260509183030 15 0 0.0 0.0 0.00 0.18 0.18 75 1010.6
20260509182510 15 0 0.0 0.0 0.00 0.18 0.18 76 1010.8
20260509182011 15 0 0.0 0.0 0.00 0.18 0.18 79 1010.9
20260509181542 15 0 0.0 0.0 0.00 0.18 0.18 79 1010.8
20260509181011 15 0 0.0 0.0 0.00 0.18 0.18 79 1010.9
20260509180516 14 0 0.0 0.0 0.00 0.18 0.18 81 1011.2
20260509180028 13 0 0.0 0.0 0.00 0.18 0.18 81 1011.3
20260509175511 13 0 0.0 0.0 0.00 0.18 0.18 81 1011.4
20260509175011 13 0 0.0 0.0 0.00 0.18 0.18 81 1011.4
20260509174532 13 0 0.0 0.0 0.00 0.18 0.18 81 1011.3
20260509174012 13 0 0.0 0.0 0.00 0.18 0.18 82 1011.3
20260509173511 13 0 0.0 0.0 0.00 0.18 0.18 82 1011.2
20260509173027 13 0 0.0 0.0 0.00 0.18 0.18 82 1011.4
20260509172511 13 0 0.0 0.0 0.00 0.18 0.18 81 1011.5
20260509172011 13 0 0.0 0.0 0.00 0.18 0.18 82 1011.5
20260509171528 13 0 0.0 0.0 0.00 0.18 0.18 80 1011.4
20260509171013 13 0 0.0 0.0 0.00 0.18 0.18 82 1011.3
20260509170511 13 0 0.0 0.0 0.00 0.18 0.18 81 1011.3
20260509170030 13 0 0.0 0.0 0.00 0.18 0.18 79 1011.3
20260509165510 13 0 0.0 0.0 0.00 0.18 0.18 81 1011.3
20260509165010 13 0 0.0 0.0 0.00 0.18 0.18 81 1011.5
20260509164543 13 0 0.0 0.0 0.00 0.18 0.18 80 1011.6
20260509164011 13 0 0.0 0.0 0.00 0.18 0.18 80 1011.7
20260509163515 13 0 0.0 0.0 0.00 0.18 0.18 81 1011.8
20260509163032 13 0 0.0 0.0 0.00 0.18 0.18 81 1011.8
20260509162516 13 0 0.0 0.0 0.00 0.18 0.18 82 1011.8
20260509162015 13 0 0.0 0.0 0.03 0.18 0.18 83 1011.9
20260509161535 13 0 0.0 0.0 0.05 0.18 0.18 84 1011.9
20260509161011 12 0 0.0 0.0 0.05 0.18 0.18 82 1011.9
20260509160513 12 0 0.0 0.0 0.10 0.18 0.18 83 1011.7
20260509160031 12 0 0.0 0.0 0.13 0.18 0.18 85 1011.6
20260509155511 12 0 0.0 0.0 0.13 0.18 0.18 85 1011.7
20260509155011 12 0 0.0 0.0 0.15 0.18 0.18 86 1011.5
20260509154531 12 0 0.0 0.0 0.15 0.18 0.18 86 1011.4
20260509154011 12 0 0.0 0.0 0.15 0.18 0.18 86 1011.3
20260509153512 12 0 0.0 0.0 0.15 0.18 0.18 86 1011.5
20260509153030 12 0 0.0 0.0 0.18 0.18 0.18 85 1011.6
20260509152512 12 0 0.0 0.0 0.18 0.18 0.18 85 1011.8
20260509152013 12 0 0.0 0.0 0.15 0.15 0.15 84 1012.0
20260509151528 12 0 0.0 0.0 0.13 0.13 0.13 83 1012.1
20260509151012 12 0 0.0 0.0 0.10 0.10 0.10 82 1012.2
20260509150514 12 0 0.0 0.0 0.08 0.08 0.08 82 1012.2
20260509150030 12 0 0.0 0.0 0.05 0.05 0.05 80 1012.0
20260509145515 12 0 0.0 0.0 0.03 0.03 0.03 80 1012.0
20260509145012 13 0 0.0 0.0 0.03 0.03 0.03 78 1012.2
20260509144537 13 0 0.0 0.0 0.03 0.03 0.03 76 1012.3
20260509144012 13 0 0.0 0.0 0.03 0.03 0.03 78 1012.3
20260509143512 13 0 0.0 0.0 0.03 0.03 0.03 75 1012.3
20260509143030 13 0 0.0 0.0 0.00 0.00 0.00 76 1012.4
20260509142511 13 0 0.0 0.0 0.00 0.00 0.00 75 1012.3
20260509142012 13 0 0.0 0.0 0.00 0.00 0.00 71 1012.2
20260509141530 13 0 0.0 0.0 0.00 0.00 0.00 70 1012.3
20260509141017 13 0 0.0 0.0 0.00 0.00 0.00 68 1011.9
20260509140515 13 0 0.0 0.0 0.00 0.00 0.00 66 1011.9
20260509140027 13 0 0.0 0.0 0.00 0.00 0.00 69 1011.9
20260509135512 13 0 0.0 0.0 0.00 0.00 0.00 67 1011.6
20260509135012 13 0 0.0 0.0 0.00 0.00 0.00 68 1011.6
20260509134527 13 0 0.0 0.0 0.00 0.00 0.00 68 1011.7
20260509134012 13 0 0.0 0.0 0.00 0.00 0.00 68 1011.5
20260509133512 13 0 0.0 0.0 0.00 0.00 0.00 69 1011.5
20260509133030 13 0 0.0 0.0 0.00 0.00 0.00 72 1011.7
20260509132512 13 0 0.0 0.0 0.00 0.00 0.00 74 1011.6
20260509132012 12 0 0.0 0.0 0.00 0.00 0.00 71 1011.5
20260509131529 12 0 0.0 0.0 0.00 0.00 0.00 71 1011.2
20260509131014 12 0 0.0 0.0 0.00 0.00 0.00 71 1011.3
20260509130513 12 0 0.0 0.0 0.00 0.00 0.00 76 1011.6
20260509130029 12 0 0.0 0.0 0.00 0.00 0.00 76 1011.6
20260509125512 12 0 0.0 0.0 0.00 0.00 0.00 76 1011.3
20260509125011 12 0 0.0 0.0 0.00 0.00 0.00 75 1011.4
20260509124527 12 0 0.0 0.0 0.00 0.00 0.00 77 1011.5
20260509124012 12 0 0.0 0.0 0.00 0.00 0.00 76 1011.4
20260509123510 12 0 0.0 0.0 0.00 0.00 0.00 78 1011.3
20260509123029 12 0 0.0 0.0 0.00 0.00 0.00 80 1011.3
20260509122512 12 0 0.0 0.0 0.00 0.00 0.00 81 1011.5
20260509122012 12 0 0.0 0.0 0.00 0.00 0.00 80 1011.5
20260509121536 11 0 0.0 0.0 0.00 0.00 0.00 79 1011.4
20260509121010 11 0 0.0 0.0 0.00 0.00 0.00 80 1011.4
20260509120511 11 0 0.0 0.0 0.00 0.00 0.00 82 1011.2
20260509120028 11 0 0.0 0.0 0.00 0.00 0.00 83 1011.5
20260509115511 11 0 0.0 0.0 0.00 0.00 0.00 84 1011.3
20260509115010 10 0 0.0 0.0 0.00 0.00 0.00 83 1011.3
20260509114532 10 0 0.0 0.0 0.00 0.00 0.00 84 1011.4
20260509114012 10 0 0.0 0.0 0.00 0.00 0.00 84 1010.8
20260509113511 10 0 0.0 0.0 0.00 0.00 0.00 84 1011.1
20260509113029 10 0 0.0 0.0 0.00 0.00 0.00 84 1010.8
20260509112510 10 0 0.0 0.0 0.00 0.00 0.00 84 1010.8
20260509112011 10 0 0.0 0.0 0.00 0.00 0.00 84 1010.8
20260509111529 10 0 0.0 0.0 0.00 0.00 0.00 85 1010.9
20260509111012 10 0 0.0 0.0 0.00 0.00 0.00 85 1011.0
20260509110513 10 0 0.0 0.0 0.00 0.00 0.00 85 1010.9
20260509110034 10 0 0.0 0.0 0.00 0.00 0.00 85 1010.8
20260509105512 10 0 0.0 0.0 0.00 0.00 0.00 85 1010.8
20260509105012 10 0 0.0 0.0 0.00 0.00 0.00 85 1010.7
20260509104536 10 0 0.0 0.0 0.00 0.00 0.00 84 1010.7
20260509104010 9 0 0.0 0.0 0.00 0.00 0.00 84 1010.8
20260509103513 9 0 0.0 0.0 0.00 0.00 0.00 84 1010.7
20260509103032 9 0 0.0 0.0 0.00 0.00 0.00 84 1010.7
20260509102514 9 0 0.0 0.0 0.00 0.00 0.00 84 1010.7
20260509102015 9 0 0.0 0.0 0.00 0.00 0.00 84 1010.5
20260509101534 10 0 0.0 0.0 0.00 0.00 0.00 85 1010.4
20260509101017 10 0 0.0 0.0 0.00 0.00 0.00 85 1010.4
20260509100513 10 0 0.0 0.0 0.00 0.00 0.00 85 1010.4
20260509100031 10 0 0.0 0.0 0.00 0.00 0.00 85 1010.4
20260509095514 10 0 0.0 0.0 0.00 0.00 0.00 85 1010.4
20260509095013 10 0 0.0 0.0 0.00 0.00 0.00 85 1010.5
20260509094528 10 0 0.0 0.0 0.00 0.00 0.00 85 1010.3
20260509094012 10 0 0.0 0.0 0.00 0.00 0.00 85 1010.2
20260509093515 10 0 0.0 0.0 0.00 0.00 0.00 84 1010.4
20260509093042 10 0 0.0 0.0 0.00 0.00 0.00 84 1010.4
20260509092512 10 0 0.0 0.0 0.00 0.00 0.00 85 1010.5
20260509092011 10 0 0.0 0.0 0.00 0.00 0.00 85 1010.7
20260509091530 10 0 0.0 0.0 0.00 0.00 0.00 85 1010.6
20260509091013 10 0 0.0 0.0 0.00 0.00 0.00 85 1010.4
20260509090512 10 0 0.0 0.0 0.00 0.00 0.00 84 1010.6
20260509090032 10 0 0.0 0.0 0.00 0.00 0.00 84 1010.8
20260509085515 9 0 0.0 0.0 0.00 0.00 0.00 84 1010.8
20260509085013 9 0 0.0 0.0 0.00 0.00 0.00 84 1010.7
20260509084542 9 0 0.0 0.0 0.00 0.00 0.00 84 1010.7
20260509084012 9 0 0.0 0.0 0.00 0.00 0.00 84 1010.8
20260509083512 9 0 0.0 0.0 0.00 0.00 0.00 84 1010.9
20260509083032 9 0 0.0 0.0 0.00 0.00 0.00 84 1010.9
20260509082511 9 0 0.0 0.0 0.00 0.00 0.00 84 1010.9
20260509082012 9 0 0.0 0.0 0.00 0.00 0.00 84 1010.9
20260509081537 9 0 0.0 0.0 0.00 0.00 0.00 83 1011.0
20260509081016 9 0 0.0 0.0 0.00 0.00 0.00 83 1010.9
20260509080514 9 0 0.0 0.0 0.00 0.00 0.00 83 1011.1
20260509080043 9 0 0.0 0.0 0.00 0.00 0.00 83 1011.2
20260509075517 9 0 0.0 0.0 0.00 0.00 0.00 83 1011.1
20260509075012 9 0 0.0 0.0 0.00 0.00 0.00 83 1011.1
20260509074530 9 0 0.0 0.0 0.00 0.00 0.00 82 1011.0
20260509074017 9 0 0.0 0.0 0.00 0.00 0.00 82 1011.0
20260509073513 9 0 0.0 0.0 0.00 0.00 0.00 82 1010.9
20260509073034 9 0 0.0 0.0 0.00 0.00 0.00 82 1011.1
20260509072527 9 0 0.0 0.0 0.00 0.00 0.00 82 1011.0
20260509072011 9 0 0.0 0.0 0.00 0.00 0.00 82 1011.2
20260509071529 9 0 0.0 0.0 0.00 0.00 0.00 81 1011.2
20260509071011 10 0 0.0 0.0 0.00 0.00 0.00 82 1011.1
20260509070512 10 0 0.0 0.0 0.00 0.00 0.00 81 1011.1
20260509070028 10 0 0.0 0.0 0.00 0.00 0.00 80 1011.2
20260509065511 10 0 0.0 0.0 0.00 0.00 0.00 80 1011.2
20260509065011 10 0 0.0 0.0 0.00 0.00 0.00 80 1011.2
20260509064528 10 0 0.0 0.0 0.00 0.00 0.00 80 1011.2
20260509064013 10 0 0.0 0.0 0.00 0.00 0.00 80 1011.1
20260509063508 10 0 0.0 0.0 0.00 0.00 0.00 80 1011.1
20260509063030 10 0 0.0 0.0 0.00 0.00 0.00 80 1011.2
20260509062515 10 0 0.0 0.0 0.00 0.00 0.00 80 1011.1
20260509062013 10 0 0.0 0.0 0.00 0.00 0.00 80 1011.2
20260509061532 10 0 0.0 0.0 0.00 0.00 0.00 80 1011.1
20260509061018 10 0 0.0 0.0 0.00 0.00 0.00 79 1011.0
20260509060515 10 0 0.0 0.0 0.00 0.00 0.00 79 1011.0
20260509060030 10 0 0.0 0.0 0.00 0.00 0.00 80 1011.1
20260509055515 10 0 0.0 0.0 0.00 0.00 0.00 80 1011.1
20260509055011 10 0 0.0 0.0 0.00 0.00 0.00 81 1011.2
20260509054533 10 0 0.0 0.0 0.00 0.00 0.00 81 1011.3
20260509054009 10 0 0.0 0.0 0.00 0.00 0.00 80 1011.3
20260509053509 10 0 0.0 0.0 0.00 0.00 0.00 80 1011.4
20260509053035 10 0 0.0 0.0 0.00 0.00 0.00 80 1011.6
20260509052509 10 0 0.0 0.0 0.00 0.00 0.00 80 1011.7
20260509052012 10 0 0.0 0.0 0.00 0.00 0.00 80 1011.7
20260509051535 10 0 0.0 0.0 0.00 0.00 0.00 79 1011.9
20260509051012 10 0 0.0 0.0 0.00 0.00 0.00 79 1011.9
20260509050512 10 0 0.0 0.0 0.00 0.00 0.00 78 1011.9
20260509050030 10 0 0.0 0.0 0.00 0.00 0.00 78 1011.8
20260509045514 10 0 0.0 0.0 0.00 0.00 0.00 78 1011.7
20260509045013 10 0 0.0 0.0 0.00 0.00 0.00 79 1011.8
20260509044530 10 0 0.0 0.0 0.00 0.00 0.00 78 1011.9
20260509044013 10 0 0.0 0.0 0.00 0.00 0.00 77 1012.0
20260509043510 10 0 0.0 0.0 0.00 0.00 0.00 76 1012.1
20260509043030 11 0 0.0 0.0 0.00 0.00 0.00 76 1011.9
20260509042512 11 0 0.0 0.0 0.00 0.00 0.00 76 1011.9
20260509042013 11 0 0.0 0.0 0.00 0.00 0.00 75 1012.0
20260509041528 11 0 0.0 0.0 0.00 0.00 0.00 76 1011.9
20260509041012 11 0 0.0 0.0 0.00 0.00 0.00 76 1012.1
20260509040516 11 0 0.0 0.0 0.00 0.00 0.00 75 1012.1
20260509040029 11 0 0.0 0.0 0.00 0.00 0.00 73 1012.2
20260509035515 11 0 0.0 0.0 0.00 0.00 0.00 72 1012.2
20260509035012 11 0 0.0 0.0 0.00 0.00 0.00 73 1012.2
20260509034529 11 0 0.0 0.0 0.00 0.00 0.00 73 1012.2
20260509034011 11 0 0.0 0.0 0.00 0.00 0.00 71 1012.2
20260509033512 11 0 0.0 0.0 0.00 0.00 0.00 72 1012.2
20260509033028 11 0 0.0 0.0 0.00 0.00 0.00 72 1012.2
20260509032513 12 0 0.0 0.0 0.00 0.00 0.00 72 1012.3
20260509032013 12 0 0.0 0.0 0.00 0.00 0.00 72 1012.2
20260509031532 12 0 0.0 0.0 0.00 0.00 0.00 70 1012.1
20260509031012 12 0 0.0 0.0 0.00 0.00 0.00 71 1012.2
20260509030514 12 0 0.0 0.0 0.00 0.00 0.00 72 1012.3
20260509030028 12 0 0.0 0.0 0.00 0.00 0.00 69 1012.3
20260509025513 12 0 0.0 0.0 0.00 0.00 0.00 71 1012.5
20260509025013 12 0 0.0 0.0 0.00 0.00 0.00 71 1012.3
20260509024531 12 0 0.0 0.0 0.00 0.00 0.00 67 1012.1
20260509024013 13 0 0.0 0.0 0.00 0.00 0.00 68 1012.1
20260509023514 12 0 0.0 0.0 0.00 0.00 0.00 66 1012.1
20260509023037 12 0 0.0 0.0 0.00 0.00 0.00 65 1012.3